www.pogodaiklimat.ru

Погода и климат >> Архив погоды >> Россия >> Ростовская область >> Шахты


АРХИВ ПОГОДЫ в Шахтах

Время (UTC), дата Ветер
(напр.,м/с)
 
Видим.   Явления Облачность Т
(С)
Тd
(С)
f
(%)
Тe
(С)
Тes
(С)
Комфортность P
(гПа)
Po
(гПа)
Тmin
(С)
Tmax
(С)
R
(мм)
R24
(мм)
S
(см)
00 17.01 штиль 0 4000 м дымка ясно -10.3 -11.0 95 -11 -11 прохладно 1014.2 998.8
03 17.01 штиль 0 200 м переохл. туман [диам. отлож. мокр. снега 1 мм] ?/? -10.7 -11.5 94 -11 -11 прохладно 1016.3 1000.9 -12.2 0.0 23
06 17.01 штиль 0 500 м переохл. туман [диам. изморози 3 мм] ?/? -12.3 -13.3 92 -12 -12 прохладно 1018.7 1003.1 -14.3
09 17.01 штиль 0 1000 м дымка {туман} [диам. изморози 6 мм] ясно -5.1 -5.7 96 -6 -2 по сезону 1019.3 1004.1
12 17.01 ЮЗ 1 4000 м дымка {туман} [диам. изморози 6 мм] 1/0
[Cc]
-2.0 -5.9 75 -4 -2 по сезону 1019.6 1004.6
15 17.01 ЮВ 1 4000 м дымка ясно -9.0 -9.5 96 -11 -11 прохладно 1021.5 1006.0 -1.0
18 17.01 ЮВ 1 1000 м дымка ясно -11.7 -12.6 93 -14 -14 холодно 1022.4 1006.8
21 17.01 В 1 200 м переохл. туман [диам. изморози 3 мм] ясно -10.4 -11.2 94 -13 -13 холодно 1022.7 1007.2
00 18.01 штиль 0 200 м переохл. туман [диам. изморози 4 мм] ясно -10.0 -10.8 94 -10 -10 по сезону 1021.9 1006.4
03 18.01 В 1 1000 м в посл. час туман [диам. изморози 6 мм] ясно -13.0 -14.2 91 -15 -15 холодно 1021.4 1005.8 -13.2 21
06 18.01 штиль 0 4000 м дымка {туман} [диам. изморози 6 мм] 4/0
[Ac trans Cc]
-10.2 -11.0 94 -11 -10 по сезону 1021.6 1006.1
09 18.01 ЮЗ 1 10 км [диам. изморози 5 мм] 4/0
[Ci fib]
-3.5 -4.5 93 -6 -2 по сезону 1021.2 1006.1
12 18.01 Ю 1 20 км 6/0
[Ac cast]
-0.2 -3.0 81 -2 -1 по сезону 1019.7 1004.8
15 18.01 Ю 2 4000 м дымка 8/0
[Ac trans]
-0.2 -0.8 96 -4 -4 по сезону 1019.7 1004.8 -0.1
18 18.01 Ю 2 10 км 10/6 1000 м
[Sc Ac und]
+1.2 +0.4 94 -2 -2 тепло 1019.0 1004.2
21 18.01 Ю 2 10 км 10/10 600 м
[Sc]
+1.5 +0.6 94 -2 -2 тепло 1018.7 1003.9
00 19.01 ЮЗ 2 10 км 10/8 1000 м
[Sc Ac und]
+2.0 +0.6 90 -1 -1 тепло 1017.6 1002.8
03 19.01 ЮЗ 2 10 км 10/10 1000 м
[Sc]
+2.0 +0.7 91 -1 -1 тепло 1016.9 1002.1 -0.3 17
06 19.01 ЮЗ 2 10 км 10/0
[Ac und]
+1.9 +0.9 93 -2 -1 тепло 1016.8 1002.1
09 19.01 ЮЗ 2 10 км слаб. ливневой дождь 10/10 600 м
[Cb cap]
+2.4 +1.1 91 -1 -1 тепло 1016.6 1001.9
12 19.01 ЮЗ 3 20 км {ливн. осадки} 10/10 600 м
[Sc]
+3.1 +1.2 87 -1 -1 по сезону 1015.9 1001.2
15 19.01 З 2 1000 м дымка {ливн. осадки} 10/10 600 м
[Sc]
+1.9 +1.7 99 -2 -2 по сезону 1016.9 1002.1 +3.4 0.0
18 19.01 С 2 1000 м дымка {ливн. осадки, туман} 10/10 600 м
[Sc]
+0.8 +0.1 95 -3 -3 по сезону 1018.7 1003.9
21 19.01 С 2 10 км 10/10 1000 м
[Sc]
+0.3 -1.2 90 -3 -3 по сезону 1021.2 1006.3
00 20.01 С 2 10 км ясно -4.6 -8.4 75 -9 -9 по сезону 1024.0 1008.8
03 20.01 С 1 10 км ясно -7.8 -9.7 86 -10 -10 по сезону 1025.7 1010.3 -7.9 0.0 16
06 20.01 С 1 20 км 3/0
[Ci fib]
-7.5 -9.0 89 -10 -9 по сезону 1027.3 1011.9 -9.5
09 20.01 В 1 20 км 4/0
[Cc]
-1.6 -8.7 58 -3 +1 по сезону 1027.1 1012.0
12 20.01 В 1 20 км 4/0
[Cc]
-1.0 -7.8 60 -3 -1 по сезону 1026.1 1011.0
15 20.01 В 1 10 км ясно -6.1 -9.2 79 -8 -8 по сезону 1025.9 1010.6 -0.8
18 20.01 В 2 10 км 4/0
[Ci sp]
-7.5 -9.4 86 -12 -12 прохладно 1025.4 1010.0
21 20.01 ЮВ 2 10 км 9/0
[Ac trans]
-6.2 -8.3 85 -11 -11 прохладно 1023.8 1008.5
00 21.01 ЮВ 1 10 км 9/6 1000 м
[Sc Ac trans]
-4.1 -5.2 92 -7 -7 по сезону 1021.9 1006.7
03 21.01 ЮВ 1 10 км 10/10 600 м
[Sc]
-2.1 -2.6 96 -4 -4 по сезону 1019.2 1004.2 -7.8 16
06 21.01 Ю 1 4000 м дымка {снег} 10/10 300 м
[St]
-0.3 -0.4 99 -3 -3 тепло 1017.1 1002.2
09 21.01 Ю 2 10 км 10/10 1000 м
[Sc]
+2.4 +0.3 86 -1 -1 тепло 1014.8 1000.2
12 21.01 Ю 2 10 км 10/10 1000 м
[Sc]
+4.0 +1.0 81 +1 +1 тепло 1012.1 997.5
15 21.01 З 3 4000 м слаб. ливневой дождь 10/10 600 м
[Cb cap]
+3.1 +3.1 100 -1 -1 тепло 1012.0 997.4 +4.0 4
18 21.01 С 3 4000 м слаб. ливневой снег 10/10 600 м
[Cb cap]
-0.7 -0.7 100 -6 -6 по сезону 1013.6 998.7
21 21.01 С 4
{11}
10 км в посл. час ливневой снег [диам. отлож. мокр. снега 2 мм] 10/10 600 м
[Sc]
-3.0 -5.1 85 -9 -9 по сезону 1015.8 1000.8
00 22.01 С 3
{10}
н/о н/о -6.2 -7.7 89 -12 -12 прохладно 1018.7 1003.5
03 22.01 С 3 10 км [диам. отлож. мокр. снега 2 мм] 10/10 1000 м
[Sc]
-8.0 -9.6 88 -14 -14 прохладно 1020.7 1005.4 -8.0 4 15
06 22.01 С 3 4000 м дымка [диам. отлож. мокр. снега 2 мм] 8/0 1000 м
[Ac As]
-8.4 -9.9 89 -14 -14 прохладно 1022.3 1006.9 -8.9
09 22.01 С 2 20 км 4/0
[Ac lent]
-5.8 -8.9 79 -10 -8 по сезону 1023.9 1008.6
12 22.01 В 1 20 км ясно -5.1 -8.8 75 -7 -6 по сезону 1023.7 1008.4
15 22.01 В 1 10 км ясно -9.8 -10.8 92 -12 -12 прохладно 1025.2 1009.7 -4.4
18 22.01 СВ 1 4000 м дымка [диам. изморози 0 мм] ясно -13.0 -13.9 93 -15 -15 холодно 1025.6 1009.8
21 22.01 В 1 10 км [диам. изморози 2 мм] ясно -13.6 -14.9 90 -16 -16 холодно 1026.0 1010.2
00 23.01 В 1 10 км [диам. изморози 2 мм] 8/0
[Ci fib]
-12.3 -13.5 91 -15 -15 холодно 1025.4 1009.7
03 23.01 В 1 10 км [диам. изморози 3 мм] 9/0
[Ci]
-12.4 -13.6 91 -15 -15 холодно 1024.6 1008.9 -13.8 15
06 23.01 В 3 4000 м дымка [диам. изморози 3 мм] 10/0
[Ac As]
-10.4 -11.3 93 -16 -16 холодно 1024.8 1009.2
09 23.01 В 5 10 км [диам. изморози 3 мм] 10/0
[As trans]
-7.2 -8.1 93 -15 -14 холодно 1023.6 1008.2
12 23.01 В 4 4000 м слаб. снег [диам. изморози 3 мм] 10/0
[As trans]
-5.3 -6.7 90 -12 -11 холодно 1021.5 1006.2
15 23.01 В 6-11
{11}
10 км {снег} 10/10 600 м
[Sc]
-4.3 -6.9 82 -12 -12 прохладно 1020.4 1005.3 -4.3 0.0
18 23.01 В 7-11
{13}
10 км {снег} 10/10 600 м
[Sc]
-3.8 -6.6 81 -12 -12 прохладно 1018.4 1003.3

 

Местоположение метеостанции Шахты (Ростовская область, Россия): широта 47.70 долгота 40.27 высота над уровнем моря 117 м.

В архиве по умолчанию представлена погода в Шахтах за последнюю неделю. Архивные данные за месяц целиком и за предыдущие месяцы, начиная с января 2011 года, Вы можете получить, выбрав интересующий диапазон дат из раскрывающегося списка и нажав кнопку "Ввод!".


*Определитесь, кто Вы:
робот инопланетянин человек

Внимание! Время в таблицах - всемирное. Для получения местного времени необходимо прибавить поправку, которая равна 3 ч.

Смотрите также архив погоды в соседних городах и на ближайших метеорологических станциях:

Погода в Аэропорту Платов (Ростовская область, Россия) (35 км)
Погода в Семикаракорске (Ростовская область, Россия) (47 км)
Погода в Ростове-на-Дону (Ростовская область, Россия) (59 км)
Погода в Константиновске (Ростовская область, Россия) (64 км)
Погода в Каменск-Шахтинском (Ростовская область, Россия) (67 км)
Погода в Белой Калитве (Ростовская область, Россия) (72 км)
Погода в Зерноград (Ростовская область, Россия) (95 км)
Погода в Матвеевом Кургане (Ростовская область, Россия) (105 км)
Погода в Таганроге (Ростовская область, Россия) (117 км)
Погода в Маргаритово (Ростовская область, Россия) (136 км)

Пояснения к столбцам:

Ветер - указаны скорость ветра в м/с - средняя за 10 мин, порывы в срок и между сроками (в фигурных скобках) и направление, откуда дует ветер: С - северный, СВ - северо-восточный, В - восточный, ЮВ - юго-восточный, Ю - южный, ЮЗ - юго-западный, З - западный, СЗ - северо-западный.
Видимость - горизонтальная дальность видимости в метрах или километрах. При видимости от 1 до 10 км при отсутствии осадков обычно наблюдается дымка, при ухудшении видимости до 1 км и менее - туман. В сухую погоду видимость может ухудшаться дымом, пылью или мглою.
Явления - указаны атмосферные явления, наблюдавшиеся в срок или в последний час перед сроком; фигурными скобками обозначены явления, наблюдавшиеся между сроками (за 1-3 часа до срока); квадратными скобками обозначены град или гололедные отложения с указанием их диаметра в мм.
Облачность - указаны через наклонную черту общая и нижняя облачность в баллах и высота нижней границы облаков в метрах; квадратными скобками обозначены формы облаков: Ci - перистые, Cs - перисто-слоистые, Cc - перисто-кучевые, Ac - высококучевые, As - высокослоистые, Sc - слоисто-кучевые, Ns - слоисто-дождевые, Cu - кучевые, Cb - кучево-дождевые. Подробнее классификацию облаков см. в Атласе облаков (PDF).
T - Температура воздуха - температура, измеренная на высоте 2 м над землей.
Td - Температура точки росы - температура, при понижении до которой содержащийся в воздухе водяной пар достигнет насыщения.
f - Относительная влажность воздуха - влажноcть воздуха, измеренная на высоте 2 м над землей.
Te - Эффективная температура - температура, которую ощущает одетый по сезону человек в тени. Характеристика душности погоды. При расчете учитывается влияние влажности воздуха и скорости ветра на теплоощущения человека.
Tes - Эффективная температура на солнце - температура, которую ощущает человек, с поправкой на солнечный нагрев. Характеристика знойности погоды. Зависит от высоты солнца над горизонтом, облачности и скорости ветра. Ночью, в пасмурную погоду, а также при ветре 12 м/с и более поправка равна нулю.
P - Атмосферное давление - приведенное к уровню моря атмосферное давление.
Po - Атмосферное давление - измеренное на уровне метеостанции атмосферное давление.
Tmin - Минимальная температура - минимум температуры воздуха на высоте 2 м над землей.
Tmax - Максимальная температура - максимум температуры воздуха на высоте 2 м над землей.
R - Количество осадков - Количество выпавших осадков за период времени, мм. При наведении курсора мыши на число - период времени, за который выпало указанное количество осадков.
R24 - Количество осадков - Количество выпавших осадков за 24 часа, мм.
S - Снежный покров - Высота снежного покрова, см. При наведении курсора мыши на число - состояние снежного покрова и степень покрытия местности в баллах.